Weather History for KLGA - August, 2013

Change the Weather History Date:

Wednesday, August 7, 2013

  Actual Average Record
Temperature  
Mean Temperature 77 °F 77 °F  
Max Temperature 82 °F 85 °F 99 °F (2001)
Min Temperature 72 °F 70 °F 61 °F (1975)
Degree Days  
Heating Degree Days 0 0  
Month to date heating degree days 0 0  
Since 1 June heating degree days 4 16  
Since 1 July heating degree days 0 0  
Cooling Degree Days 12 12  
Month to date cooling degree days 72 88  
Year to date cooling degree days 950 770  
Since 1 June cooling degree days 862 704  
Growing Degree Days 27 (Base 50)    
Moisture  
Dew Point 61 °F    
Average Humidity 64    
Maximum Humidity 79    
Minimum Humidity 49    
Precipitation  
Precipitation 0.01 in 0.13 in 1.31 in (1946)
Month to date precipitation 0.52 1.04  
Year to date precipitation 25.89 27.17  
Snow  
Snow 0.00 in 0.00 in - ()
Month to date snowfall 0.0 0.0  
Since 1 July snowfall 0.0 0.0  
Snow Depth 0.00 in    
Sea Level Pressure  
Sea Level Pressure 30.11 in    
Wind  
Wind Speed 12 mph (SSE)    
Max Wind Speed 23 mph    
Max Gust Speed 29 mph    
Visibility 10 miles    
Events      
T = Trace of Precipitation, MM = Missing Value Source: NWS Daily Summary

Daily Weather History Graph

Daily Weather History Graph

Search for Another Location

Airport or City:

Trip Planner

Search our weather history database for the weather conditions in past years. The results will help you decide how hot, cold, wet, or windy it might be!

Date:

Astronomy

Aug. 07, 2013 Rise Set
Actual Time 5:58 AM EDT 8:03 PM EDT
Civil Twilight 5:27 AM EDT 8:33 PM EDT
Nautical Twilight 4:50 AM EDT 9:10 PM EDT
Astronomical Twilight 4:10 AM EDT 9:50 PM EDT
Moon 6:44 AM EDT (8/7) 8:08 PM EDT (8/7)
Length of Visible Light 15h 05m
Length of Day
14h 05m
New Moon, 1% of the Moon is Illuminated
Aug 7
New Moon
Aug 14
First Quarter
Aug 20
Full
Aug 28
Last Quarter
Sep 5
New

Hourly Weather History & Observations

Time (EDT) Temp. Heat Index Dew Point Humidity Pressure Visibility Wind Dir Wind Speed Gust Speed Precip Events Conditions
12:51 AM 73.0 °F - 57.0 °F 57% 30.12 in 10.0 mi South 10.4 mph - N/A   Overcast
1:51 AM 72.0 °F - 57.9 °F 61% 30.12 in 10.0 mi South 8.1 mph - N/A   Overcast
2:51 AM 73.0 °F - 59.0 °F 61% 30.12 in 10.0 mi SSE 8.1 mph - N/A   Mostly Cloudy
3:51 AM 72.0 °F - 59.0 °F 64% 30.12 in 10.0 mi South 5.8 mph - N/A   Scattered Clouds
4:51 AM 72.0 °F - 59.0 °F 64% 30.13 in 10.0 mi SE 5.8 mph - N/A   Overcast
5:51 AM 72.0 °F - 57.9 °F 61% 30.13 in 10.0 mi SSE 6.9 mph - N/A   Mostly Cloudy
6:51 AM 72.0 °F - 57.9 °F 61% 30.14 in 10.0 mi SSE 8.1 mph - N/A   Overcast
7:51 AM 73.0 °F - 57.9 °F 59% 30.14 in 10.0 mi SSE 10.4 mph - N/A   Overcast
8:51 AM 73.0 °F - 59.0 °F 61% 30.14 in 10.0 mi SE 11.5 mph - N/A   Mostly Cloudy
9:51 AM 73.9 °F - 59.0 °F 59% 30.13 in 10.0 mi SE 10.4 mph - N/A   Overcast
10:51 AM 75.9 °F - 59.0 °F 56% 30.13 in 10.0 mi South 9.2 mph 17.3 mph N/A   Overcast
11:51 AM 75.9 °F - 60.1 °F 58% 30.14 in 10.0 mi SSE 15.0 mph 21.9 mph N/A   Overcast
12:51 PM 75.9 °F - 60.1 °F 58% 30.13 in 10.0 mi SSE 9.2 mph - N/A   Overcast
1:51 PM 79.0 °F - 59.0 °F 50% 30.12 in 10.0 mi SSE 12.7 mph 19.6 mph N/A   Mostly Cloudy
2:51 PM 80.1 °F 80.7 °F 59.0 °F 48% 30.11 in 10.0 mi South 13.8 mph 21.9 mph N/A   Mostly Cloudy
3:51 PM 77.0 °F - 62.1 °F 60% 30.10 in 10.0 mi South 15.0 mph 21.9 mph N/A   Mostly Cloudy
4:51 PM 78.1 °F - 62.1 °F 58% 30.09 in 10.0 mi SSE 12.7 mph 25.3 mph N/A   Mostly Cloudy
5:51 PM 75.9 °F - 63.0 °F 64% 30.09 in 10.0 mi SSE 13.8 mph - N/A   Overcast
6:36 PM 75.2 °F - 64.4 °F 69% 30.07 in 10.0 mi SSE 20.7 mph 27.6 mph 0.01 in   Overcast
6:51 PM 75.0 °F - 64.0 °F 69% 30.08 in 10.0 mi South 18.4 mph 28.8 mph 0.01 in   Overcast
7:47 PM 73.4 °F - 64.4 °F 73% 30.07 in 10.0 mi South 16.1 mph - N/A   Overcast
7:51 PM 73.9 °F - 66.0 °F 76% 30.08 in 10.0 mi SSE 12.7 mph 20.7 mph N/A   Overcast
8:04 PM 73.4 °F - 66.2 °F 78% 30.07 in 10.0 mi South 17.3 mph 25.3 mph N/A   Mostly Cloudy
8:27 PM 75.2 °F - 66.2 °F 73% 30.07 in 10.0 mi SSE 11.5 mph 19.6 mph N/A   Overcast
8:51 PM 73.0 °F - 66.0 °F 79% 30.08 in 10.0 mi South 16.1 mph 19.6 mph N/A   Overcast
9:08 PM 73.4 °F - 66.2 °F 78% 30.08 in 10.0 mi South 13.8 mph 21.9 mph N/A   Overcast
9:51 PM 73.0 °F - 66.0 °F 79% 30.09 in 10.0 mi South 13.8 mph 19.6 mph N/A   Overcast
10:51 PM 73.0 °F - 66.0 °F 79% 30.09 in 10.0 mi South 12.7 mph - 0.00 in   Overcast
11:51 PM 73.0 °F - 66.9 °F 81% 30.08 in 10.0 mi SSE 12.7 mph - N/A   Overcast